Location: Navalmoral
(40.4603°N, 4.7686°W)
Time: 09:37:49
(UTC+00:00)

Meteor 1-26 Rocket - Pass Details

Date: 05 August 2024
Orbit: 805 x 928 km, 81.3° (Epoch: 14 September)

Event Time Altitude Azimuth Distance (km) Brightness Sun altitude
Rises 21:48:02 0° 351° (N) 3,491 8.3 -22.3°
Reaches altitude 10° 21:50:28 10° 353° (N) 2,565 7.5 -22.6°
Maximum altitude 21:56:20 78° 80° (E) 933 4.2 -23.3°
Enters shadow 21:57:53 52° 154° (SSE) 1,127 4.4 -23.5°
